Hourly Data Report for October 21, 2016

All times are specified in Local Standard Time (LST). Add 1 hour to adjust for Daylight Saving Time where and when it is observed.

OTTAWA INTL A
ONTARIO

45°19'00.000" N
75°40'00.000" W
114.90 m
6106001
71628
YOW

Download Data

Hourly Data (October 2016)
Hourly Data Report for October 21, 2016
Temp Definition
°C
Dew Point Temp Definition
°C
Rel Hum Definition
%
Wind Dir Definition
10's deg

Wind Spd Definition
km/h
Visibility Definition
km
Stn Press Definition
kPa
Hmdx Definition


Wind Chill Definition


Weather Definition


TIME
00:00 Legend Double Dagger 9.5 9.2 98 3 20 11.3 100.06     Rain
01:00 Legend Double Dagger 9.4 9.1 98 1 19 12.9 99.99     Rain
02:00 Legend Double Dagger 9.3 9.0 98 2 21 24.1 99.89     Rain
03:00 Legend Double Dagger 9.4 9.0 97 1 16 16.1 99.86     Rain
04:00 Legend Double Dagger 9.4 9.0 97 36 19 12.9 99.82     Rain
05:00 Legend Double Dagger 9.3 9.0 98 36 17 12.9 99.82     Rain
06:00 Legend Double Dagger 9.3 9.0 98 35 22 12.9 99.76     Rain
07:00 Legend Double Dagger 9.3 8.7 96 36 20 12.9 99.74     Rain
08:00 Legend Double Dagger 9.1 8.7 97 35 21 12.9 99.74     Rain
09:00 Legend Double Dagger 9.2 8.8 97 35 21 12.9 99.68     Rain
10:00 Legend Double Dagger 9.3 8.9 97 36 16 12.9 99.69     Rain
11:00 Legend Double Dagger 9.4 9.0 97 35 19 16.1 99.71     Rain
12:00 Legend Double Dagger 9.4 9.0 97 35 17 16.1 99.67     Rain
13:00 Legend Double Dagger 9.5 9.1 97 36 21 12.9 99.58     Rain
14:00 Legend Double Dagger 9.4 8.8 96 35 23 12.9 99.54     Rain
15:00 Legend Double Dagger 9.0 8.6 97 34 22 12.9 99.60     Rain
16:00 Legend Double Dagger 8.4 7.8 96 34 23 12.9 99.54     Rain
17:00 Legend Double Dagger 7.9 7.2 95 35 22 16.1 99.52     Rain
18:00 Legend Double Dagger 7.5 6.8 95 35 20 16.1 99.53     Rain
19:00 Legend Double Dagger 6.7 6.0 95 33 27 16.1 99.53     Rain
20:00 Legend Double Dagger 6.2 5.3 94 34 29 16.1 99.45     Rain
21:00 Legend Double Dagger 6.3 5.0 91 33 28 24.1 99.45     Rain
22:00 Legend Double Dagger 5.9 5.2 95 34 26 8.1 99.36     Rain
23:00 Legend Double Dagger 5.6 4.9 95 32 26 16.1 99.24     LegendNANA

Notes on Data Quality.

Legend

  • E = Estimated
  • M = Missing
  • NA = Not Available
  • ‡ = Partner data that is not subject to review by the National Climate Archives
Date modified: